Погода в Москве

Погода в Москве : погода сейчас, прогноз погоды и архив. Всё, что Вы хотите узнать о погоде в Москве!

Хотите узнать прогноз погоды в Москве? Тогда Вам сюда: Погода в Москве

Поиск расширенной информации на нашем сайте:

Другие новости

Новости СМИ2

Главная страница сайта

Новости сайта

03.07.2017

Напоминаем, что на нашем специализированном сайте Метеоцентр.Азия вы можете получить высокодетализированные автоматические прогнозы погоды по пунктам России, СНГ и мира в авиационном формате (включающие направление и скорость ветра, видимость, явления погоды, количество и форму облачности, нижнюю и верхнюю границу облачности).


Погода в Москве - сегодня

Время (UTC), дата Ветер
(°,м/с) 
Видим.   Явления Облачность Т
(°С)
Тd
(°С)
f(%) Тe
(°С)
Pmin
(гПа)
dP
(гПа)
Po
(мм)
O2
(г/м3)
Тmin Tmax R s Состояние
почвы
09 12.08.18 230 (ЮЗ) 10 км    5/0 верхняя 
[Cs]
+26.8 +9 33 +27  1013.8  -1.3  747  273           
12 12.08.18 180 (Ю) 10 км    6/4 600 м верхняя 
[Cu hum|Ci fib]
+27.2 +9.3 32 +28  1011.9  -1.8  746  272           
15 12.08.18 270 (З) 10 км    8/8 600 м 
[Cu Sc]
+25.8 +10 37 +27  1010.6  -1.4  744  272           
21 12.08.18 270 (З) н/о    5/0 средняя 
[Ac trans]
+19 +11.8 63 +25  1011.7  0.2  745  278           
00 13.08.18 300 (СЗ) н/о    ясно 
+17 +10.7 66 +20  1011.6  -0.3  745  281           
09 13.08.18 240 (ЮЗ) 10 км    8/4 600 м средняя, верхняя 
[Cu Sc|Ac trans|Ci fib]
+21 +6.2 38 +21  1010.9  0.1  744  278           
21 13.08.18 300 (СЗ) н/о    9/0 средняя, верхняя 
[Ac trans|Ci fib]
+17.1 +9.9 63 +20  1011.6  0.3  745  281           
00 14.08.18 тихо ()   н/о    ясно 
+14.8 +10.4 75 +17  1012.8  746  283           
03 14.08.18 300 (СЗ) 10 км    ясно 
+13.7 +11 84 +18  1014.1  1.2  746  284  +13.4         
09 14.08.18 290 (З) 10 км    4/4 1000 м 
[Cu hum]
+21.7 +7.7 40 +22  1015.2  0.3  748  278           
12 14.08.18 280 (З) 10 км    6/6 1000 м 
[Cu hum]
+23.4 +6.1 33 +23  1014.5  -0.5  747  276           
15 14.08.18 260 (З) 10 км    8/5 1000 м верхняя 
[Cu hum|Ci fib]
+23.7 +6.1 32 +24  1014.1  -0.3  747  276           
21 14.08.18 тихо ()   н/о    3/3 600 м 
[Sc]
+15.2 +11 76 +18  1015.4  0.3  748  283           
00 15.08.18 тихо ()   н/о    6/6 600 м 
[Sc]
+17.6 +12.8 73 +23  1014.5  -0.7  747  280           
09 15.08.18 160 (Ю) 10 км    9/6 600 м средняя 
[Cu Sc|Ac cast]
+22.5 +14.6 61 +31  1010.3  -1.6  744  274           
15 15.08.18 120 (ЮВ) 10 км    10/4 600 м средняя 
[Cu Sc|Ac und]
+24.3 +17.2 65 +37  1008.5  -1.6  743  271      0.9     
21 15.08.18 280 (З) н/о  дымка{ливн. осадки}  10/8 600 м средняя 
[Sc|Ac As]
+17.7 +16.8 94 +31  1011.2  0.5  745  278           
03 16.08.18 260 (З) 4000 м  дымка  8/3 600 м средняя 
[Sc|Ac trans]
+16.3 +15.7 96 +28  1013.4  746  280  +16.1    14     
06 16.08.18 310 (СЗ) 10 км  дымка  10/10 600 м 
[Sc]
+17.7 +15 84 +28  1014.8  1.5  747  280  +16.1    0.4    мокрая 
09 16.08.18 330 (СЗ) 4000 м  слаб. ливневой дождь  10/10 300 м кучево-дожд. 
[Cb cap]
+17.3 +15.1 87 +28  1016.6  1.7  749  280           
15 16.08.18 020 (С) 10 км    6/3 600 м средняя 
[Sc diur, vesp|Ac trans]
+19 +14.1 73 +27  1018.6  0.7  750  280      0.4     
21 16.08.18 тихо ()   н/о  дымка  ясно 
+14 +13.2 95 +20  1021.8  752  286           
00 17.08.18 тихо ()   н/о  дымка  ясно 
+12.8 +12.2 96 +17  1022.8  0.9  753  287           
09 17.08.18 020 (С) 10 км    6/6 600 м 
[Cu hum]
+20.4 +8.2 45 +20  1024.5  0.1  754  281           
12 17.08.18 110 (В) 10 км    4/4 1000 м 
[Cu hum]
+22.7 +7 36 +23  1023.9  -0.4  754  279           
Время (UTC), дата Ветер
(°,м/с) 
Видим.   Явления Облачность Т
(°С)
Тd
(°С)
f(%) Тe
(°С)
Pmin
(гПа)
dP
(гПа)
Po
(мм)
O2
(г/м3)
Тmin Tmax R s Состояние
почвы

Для получения пояснительной информации подведите курсор к названию столбца.

ПОГОДА в Москве - архив

Всё, что Вы хотите узнать о погоде в Москве - удобно и подробно!

Выберите нужную дату (начиная с 1 января 2015* года) и нажмите кнопку "Найти".
Будут отображены архивные сводки погоды по пункту Москва, начиная с указанной даты.


Отображать данные в формате CSV (для использования в таблицах Excel)


Внимание! Наш архив погоды предназначен исключительно для личного некоммерческого использования в познавательных целях. Если Вам необходимы официальные справки о состоянии погоды (для производственных, юридических, коммерческих и т.п. целей), обращайтесь в органы Росгидромета.

*Примечание: данная дата относится к архиву по метеостанциям СССР (Россия, СНГ, Балтия).
Архив по метеостанциям Зарубежной Европы и Азии (кроме Китая) хранится 10 дней, по другим регионам земного шара (Китай, Африка, Америка, Австралия, Океания) - 1 день.

Москва - район местоположения метеостанции


Название, широта, долгота, высота метеостанции:
Москва (ВВЦ) 55.8°ш. 37.6°д. 156 м над ур. моря [Российская Федерация]

Дополнительная информация

В oтличие oт бoльшинства пoгoдных сайтoв мы публикуем пoдрoбную метеoинфoрмацию в детальнoм прoфессиoнальнoм фoрмате.

Характеристики температуры и влажнoсти вoздуха измеряются на высoте 2 м в тени вдали oт зданий и деревьев.
Скoрoсть ветра измеряется на высoте 10 м (на урoвне рoста челoвека скoрoсть ветра ниже в 1.5-2 раза). Если метеoстанция нахoдится в гoрoде или в лесу, тo скoрoсть ветра занижена на 2-4 м/с пo сравнению с oткрытым местoм. Скoрoсть ветра над акватoриями крупных рек и oзёр, а также на вершинах хoлмoв на 2-5 м/с выше, чем в oбычных услoвиях.
Атмoсфернoе давление в разных тoчках местнoсти мoжет значительнo oтличаться oт давления на метеoстанции, в зависимoсти oт услoвий рельефа (при пoдъёме на 10 м давление пoнижается примернo на 1 мм рт.ст.).